TimeCEST,TemperatureF,Dew PointF,Humidity,Sea Level PressureIn,VisibilityMPH,Wind Direction,Wind SpeedMPH,Gust SpeedMPH,PrecipitationIn,Events,Conditions,WindDirDegrees,DateUTC
12:00 AM,64.4,62.6,94,30.04,6.2,South,5.8,-,N/A,,Mostly Cloudy,180,2012-10-21 22:00:00
1:00 AM,64.4,64.4,100,30.04,6.2,South,5.8,-,N/A,,Mostly Cloudy,190,2012-10-21 23:00:00
2:00 AM,64.4,64.4,100,30.01,5.0,SSW,10.4,-,N/A,,Light Drizzle,200,2012-10-22 00:00:00
3:00 AM,64.4,62.6,94,30.01,6.2,South,11.5,-,N/A,,Mostly Cloudy,190,2012-10-22 01:00:00
4:00 AM,64.4,62.6,94,30.01,6.2,South,11.5,-,N/A,,Mostly Cloudy,190,2012-10-22 02:00:00
5:00 AM,64.4,62.6,94,30.01,6.2,SSW,11.5,-,N/A,,Mostly Cloudy,200,2012-10-22 03:00:00
6:00 AM,64.4,62.6,94,30.01,6.2,SSW,9.2,-,N/A,,Mostly Cloudy,200,2012-10-22 04:00:00
7:00 AM,64.4,62.6,94,30.01,6.2,SSW,8.1,-,N/A,,Light Drizzle,200,2012-10-22 05:00:00
8:00 AM,64.4,62.6,94,30.04,6.2,SSW,4.6,-,N/A,,Mostly Cloudy,200,2012-10-22 06:00:00
9:00 AM,64.4,64.4,100,30.04,6.2,Variable,2.3,-,N/A,,Mostly Cloudy,0,2012-10-22 07:00:00
10:00 AM,64.4,64.4,100,30.06,6.2,East,3.5,-,N/A,,Mostly Cloudy,80,2012-10-22 08:00:00
10:36 AM,66.2,64.4,94,30.06,6.2,ENE,4.6,-,N/A,,Mostly Cloudy,70,2012-10-22 08:36:00
11:00 AM,66.2,66.2,100,30.06,6.2,ENE,3.5,-,N/A,,Scattered Clouds,60,2012-10-22 09:00:00
12:00 PM,66.2,64.4,94,30.09,6.2,NE,3.5,-,N/A,,Scattered Clouds,40,2012-10-22 10:00:00
1:00 PM,69.8,66.2,88,30.06,6.2,NE,3.5,-,N/A,,Mostly Cloudy,40,2012-10-22 11:00:00
3:00 PM,71.6,64.4,78,30.04,6.2,NNW,3.5,-,N/A,,Mostly Cloudy,340,2012-10-22 13:00:00
4:00 PM,73.4,64.4,73,30.04,6.2,North,4.6,-,N/A,,Mostly Cloudy,360,2012-10-22 14:00:00
5:00 PM,73.4,64.4,73,30.04,6.2,North,8.1,-,N/A,,Scattered Clouds,10,2012-10-22 15:00:00
6:00 PM,73.4,64.4,73,30.04,6.2,NNE,6.9,-,N/A,,Partly Cloudy,20,2012-10-22 16:00:00
7:00 PM,71.6,64.4,78,30.04,-9999.0,NE,9.2,-,N/A,,Clear,40,2012-10-22 17:00:00
8:00 PM,68.0,64.4,88,30.04,-9999.0,NNE,4.6,-,N/A,,Clear,20,2012-10-22 18:00:00
9:00 PM,68.0,62.6,83,30.04,-9999.0,ENE,5.8,-,N/A,,Clear,60,2012-10-22 19:00:00
10:00 PM,66.2,62.6,88,30.04,-9999.0,ENE,4.6,-,N/A,,Clear,60,2012-10-22 20:00:00
11:00 PM,66.2,62.6,88,30.06,-9999.0,ENE,3.5,-,N/A,,Clear,60,2012-10-22 21:00:00